QPF
0.00 0.00 0.00 0.00 0.00 0.00 0.00 0.00 0.00 0.00 0.00 0.00 0.00 0.00 0.00 0.00 0.00 0.00 0.00 0.00 0.00 0.00 0.00 0.00 0.00 0.00 0.02 0.04 0.01 0.00 0.00 0.00 0.00 0.00 0.00 0.00 0.00 0.00 0.00 0.00 0.00 0.00 0.00 0.00 0.00
0.00 0.00 0.00 0.00 0.00 0.00 0.00 0.00 0.00 0.00 0.00 0.00 0.00 0.00 0.00 0.00 0.00 0.00 0.00 0.00 0.00 0.00 0.00 0.00 0.00 0.00 0.00 0.02 0.00 0.00 0.01 0.00 0.00 0.00 0.00 0.01 0.00 0.00 0.00 0.00 0.00 0.00 0.00 0.00 0.03
0.00 0.00 0.00 0.00 0.00 0.00 0.00 0.00 0.00 0.00 0.00 0.00 0.00 0.00 0.00 0.00 0.00 0.00 0.00 0.00 0.00 0.00 0.00 0.00 0.00 0.00 0.00 0.00 0.00 0.00 0.00 0.03 0.00 0.00 0.00 0.00 0.00 0.00 0.00 0.00 0.02 0.00 0.00 0.00 0.08
0.00 0.00 0.00 0.00 0.00 0.00 0.00 0.00 0.00 0.00 0.00 0.00 0.00 0.00 0.00 0.00 0.00 0.00 0.00 0.00 0.00 0.00 0.00 0.00 0.00 0.00 0.00 0.00 0.00 0.00 0.00 0.00 0.00 0.00 0.00 0.00 0.00 0.00 0.00 0.00 0.01 0.00 0.00 0.01 0.04
0.00 0.00 0.00 0.00 0.00 0.00 0.00 0.00 0.00 0.00 0.00 0.00 0.00 0.00 0.00 0.00 0.00 0.00 0.00 0.00 0.00 0.00 0.00 0.00 0.00 0.00 0.00 0.00 0.00 0.00 0.00 0.00 0.00 0.00 0.00 0.00 0.00 0.00 0.00 0.00 0.00 0.00 0.00 0.01 0.05
0.00 0.00 0.00 0.00 0.00 0.00 0.00 0.00 0.00 0.00 0.00 0.00 0.00 0.00 0.00 0.00 0.00 0.00 0.00 0.00 0.00 0.00 0.00 0.01 0.00 0.00 0.00 0.00 0.00 0.00 0.00 0.00 0.00 0.00 0.00 0.00 0.00 0.00 0.00 0.00 0.00 0.00 0.00 0.00 0.00
0.00 0.00 0.00 0.00 0.00 0.00 0.00 0.00 0.00 0.00 0.00 0.00 0.00 0.00 0.00 0.00 0.00 0.00 0.00 0.00 0.01 0.03 0.02 0.02 0.00 0.00 0.00 0.00 0.00 0.00 0.00 0.00 0.00 0.00 0.00 0.00 0.00 0.00 0.00 0.00 0.00 0.00 0.00 0.01 0.00
0.00 0.00 0.00 0.00 0.00 0.00 0.00 0.00 0.00 0.00 0.00 0.00 0.00 0.00 0.00 0.00 0.00 0.00 0.00 0.00 0.01 0.01 0.01 0.05 0.01 0.00 0.00 0.00 0.00 0.00 0.00 0.00 0.01 0.00 0.00 0.00 0.00 0.00 0.00 0.00 0.00 0.00 0.00 0.00 0.00
0.00 0.00 0.00 0.00 0.00 0.00 0.00 0.00 0.00 0.00 0.00 0.00 0.00 0.00 0.00 0.00 0.00 0.00 0.00 0.00 0.00 0.00 0.00 0.03 0.05 0.00 0.00 0.00 0.00 0.00 0.00 0.00 0.00 0.00 0.00 0.00 0.00 0.00 0.00 0.00 0.00 0.00 0.00 0.00 0.00
0.00 0.00 0.00 0.00 0.00 0.00 0.00 0.00 0.00 0.00 0.00 0.00 0.00 0.00 0.00 0.00 0.00 0.00 0.00 0.00 0.00 0.00 0.00 0.00 0.01 0.01 0.00 0.00 0.00 0.00 0.00 0.00 0.00 0.00 0.00 0.00 0.00 0.00 0.00 0.00 0.00 0.00 0.00 0.00 0.00
0.00 0.00 0.00 0.00 0.00 0.00 0.00 0.00 0.00 0.00 0.00 0.00 0.00 0.00 0.00 0.00 0.00 0.00 0.00 0.00 0.00 0.00 0.00 0.00 0.00 0.00 0.00 0.00 0.00 0.00 0.00 0.00 0.00 0.00 0.00 0.00 0.00 0.00 0.00 0.00 0.00 0.00 0.00 0.00 0.00
0.00 0.00 0.00 0.00 0.00 0.00 0.00 0.00 0.00 0.00 0.00 0.00 0.00 0.00 0.00 0.00 0.00 0.00 0.00 0.00 0.00 0.00 0.00 0.00 0.01 0.01 0.00 0.00 0.00 0.00 0.00 0.00 0.00 0.00 0.00 0.00 0.00 0.00 0.00 0.00 0.00 0.00 0.00 0.00 0.00
0.00 0.00 0.00 0.00 0.00 0.00 0.00 0.00 0.00 0.00 0.00 0.00 0.00 0.00 0.00 0.00 0.00 0.00 0.00 0.00 0.01 0.00 0.00 0.00 0.00 0.00 0.00 0.00 0.00 0.00 0.00 0.00 0.00 0.00 0.00 0.00 0.00 0.00 0.00 0.00 0.00 0.00 0.00 0.00 0.00
0.00 0.00 0.00 0.00 0.00 0.00 0.00 0.00 0.00 0.00 0.00 0.00 0.00 0.00 0.00 0.00 0.00 0.00 0.00 0.01 0.01 0.00 0.00 0.00 0.00 0.00 0.00 0.00 0.00 0.00 0.00 0.00 0.00 0.00 0.00 0.00 0.00 0.00 0.00 0.00 0.00 0.00 0.00 0.00 0.00
0.00 0.00 0.00 0.00 0.00 0.00 0.00 0.00 0.00 0.00 0.00 0.00 0.00 0.00 0.00 0.00 0.00 0.00 0.00 0.00 0.00 0.00 0.00 0.00 0.00 0.00 0.00 0.00 0.00 0.00 0.00 0.00 0.00 0.00 0.00 0.00 0.00 0.00 0.00 0.00 0.00 0.00 0.00 0.00 0.00
0.00 0.00 0.00 0.00 0.00 0.00 0.00 0.00 0.00 0.00 0.00 0.00 0.00 0.00 0.00 0.00 0.00 0.00 0.00 0.00 0.00 0.00 0.00 0.00 0.00 0.00 0.00 0.00 0.00 0.00 0.00 0.00 0.00 0.00 0.00 0.00 0.00 0.00 0.00 0.00 0.00 0.00 0.00 0.00 0.00
0.00 0.00 0.00 0.00 0.00 0.00 0.00 0.00 0.00 0.00 0.00 0.00 0.00 0.00 0.00 0.00 0.00 0.00 0.00 0.00 0.00 0.00 0.00 0.01 0.00 0.00 0.00 0.00 0.00 0.00 0.00 0.00 0.00 0.00 0.00 0.00 0.00 0.00 0.00 0.00 0.00 0.00 0.00 0.00 0.00
0.00 0.00 0.00 0.00 0.00 0.00 0.00 0.00 0.00 0.00 0.00 0.00 0.00 0.00 0.00 0.00 0.00 0.00 0.00 0.00 0.00 0.00 0.00 0.03 0.00 0.00 0.00 0.00 0.00 0.00 0.00 0.00 0.00 0.00 0.00 0.00 0.00 0.00 0.00 0.00 0.00 0.00 0.00 0.00 0.00
0.00 0.00 0.00 0.00 0.00 0.00 0.00 0.00 0.00 0.00 0.00 0.00 0.00 0.00 0.00 0.00 0.00 0.00 0.00 0.00 0.00 0.00 0.00 0.00 0.00 0.00 0.00 0.00 0.00 0.00 0.00 0.00 0.00 0.00 0.00 0.00 0.00 0.00 0.00 0.00 0.00 0.00 0.00 0.00 0.00
0.00 0.00 0.00 0.00 0.00 0.00 0.00 0.00 0.00 0.00 0.00 0.00 0.00 0.00 0.00 0.00 0.00 0.00 0.00 0.00 0.00 0.00 0.00 0.00 0.00 0.00 0.00 0.00 0.00 0.00 0.00 0.00 0.00 0.00 0.00 0.00 0.00 0.00 0.00 0.00 0.00 0.00 0.00 0.00 0.00
0.00 0.00 0.00 0.00 0.00 0.00 0.00 0.00 0.00 0.00 0.00 0.00 0.00 0.00 0.00 0.00 0.00 0.00 0.00 0.00 0.00 0.00 0.00 0.00 0.00 0.00 0.00 0.00 0.00 0.00 0.00 0.00 0.00 0.00 0.00 0.00 0.00 0.00 0.00 0.00 0.00 0.00 0.00 0.00 0.00
0.00 0.00 0.00 0.00 0.00 0.00 0.00 0.00 0.00 0.00 0.00 0.00 0.00 0.00 0.00 0.00 0.00 0.00 0.00 0.00 0.00 0.00 0.00 0.00 0.00 0.00 0.00 0.00 0.00 0.00 0.00 0.00 0.00 0.00 0.00 0.00 0.00 0.00 0.00 0.00 0.00 0.00 0.00 0.00 0.00
0.00 0.00 0.00 0.00 0.00 0.00 0.00 0.00 0.00 0.00 0.00 0.00 0.00 0.00 0.00 0.00 0.00 0.00 0.00 0.00 0.00 0.00 0.00 0.00 0.00 0.00 0.00 0.00 0.00 0.00 0.00 0.00 0.00 0.00 0.00 0.00 0.00 0.00 0.00 0.00 0.00 0.00 0.00 0.00 0.00
0.00 0.00 0.00 0.00 0.00 0.00 0.00 0.00 0.00 0.00 0.00 0.00 0.00 0.00 0.00 0.00 0.00 0.00 0.00 0.00 0.00 0.00 0.00 0.00 0.00 0.00 0.00 0.00 0.00 0.00 0.00 0.00 0.00 0.00 0.00 0.00 0.00 0.00 0.00 0.00 0.00 0.00 0.00 0.00 0.00
0.00 0.00 0.00 0.00 0.00 0.00 0.00 0.00 0.00 0.00 0.00 0.00 0.00 0.00 0.00 0.00 0.00 0.00 0.00 0.00 0.00 0.00 0.00 0.00 0.00 0.00 0.00 0.00 0.00 0.00 0.00 0.00 0.00 0.00 0.00 0.00 0.00 0.00 0.00 0.00 0.00 0.00 0.00 0.00 0.00
0.00 0.00 0.00 0.00 0.00 0.00 0.00 0.00 0.00 0.00 0.00 0.00 0.00 0.00 0.00 0.00 0.00 0.00 0.00 0.00 0.00 0.00 0.00 0.00 0.00 0.00 0.00 0.00 0.00 0.00 0.00 0.00 0.00 0.00 0.00 0.00 0.00 0.00 0.00 0.00 0.00 0.00 0.00 0.00 0.00
0.00 0.00 0.00 0.00 0.00 0.00 0.00 0.00 0.00 0.00 0.00 0.00 0.00 0.00 0.00 0.00 0.00 0.00 0.00 0.00 0.00 0.00 0.00 0.00 0.00 0.00 0.00 0.00 0.00 0.00 0.00 0.00 0.00 0.00 0.00 0.00 0.00 0.00 0.00 0.00 0.00 0.00 0.00 0.00 0.00
MSLP
1014.60 1014.36 1014.10 1013.94 1013.85 1013.77 1013.78 1013.66 1013.45 1013.19 1012.83 1012.54 1012.58 1012.66 1012.61 1012.32 1011.78 1011.74 1010.80 1008.65 1008.59 1008.48 1008.44 1009.02 1009.20 1009.35 1009.93 1010.73 1011.14 1011.31 1011.67 1011.67 1011.14 1010.51 1010.15 1009.91 1010.25 1010.90 1011.55 1012.30 1012.90 1013.24 1013.84 1014.19 1015.09
1014.56 1014.22 1014.00 1013.89 1013.74 1013.64 1013.62 1013.51 1013.37 1013.06 1012.74 1012.36 1012.52 1012.50 1012.44 1012.21 1011.74 1010.70 1008.19 1007.87 1007.87 1007.99 1008.60 1008.85 1009.27 1009.63 1009.82 1010.78 1011.22 1011.36 1011.90 1011.38 1010.71 1010.15 1009.99 1010.15 1010.41 1011.17 1011.93 1012.63 1013.38 1013.83 1014.26 1014.74 1015.33
1014.42 1014.09 1013.83 1013.72 1013.63 1013.53 1013.48 1013.33 1013.18 1012.93 1012.56 1012.34 1012.50 1012.39 1012.25 1012.16 1011.36 1008.45 1007.40 1007.76 1007.87 1008.05 1008.37 1008.61 1009.09 1009.53 1010.29 1011.07 1011.43 1011.33 1011.38 1011.23 1010.47 1009.66 1009.25 1009.99 1010.70 1011.44 1012.11 1012.86 1013.29 1013.83 1014.55 1015.23 1015.82
1014.30 1013.95 1013.70 1013.59 1013.53 1013.43 1013.35 1013.24 1013.03 1012.71 1012.40 1012.30 1012.46 1012.24 1012.05 1012.03 1010.10 1007.55 1007.09 1007.64 1007.96 1008.24 1008.49 1008.76 1009.07 1009.75 1010.65 1011.31 1011.23 1011.23 1010.83 1010.73 1010.13 1009.50 1009.28 1010.13 1010.97 1011.97 1012.50 1012.88 1012.68 1013.66 1014.33 1015.24 1016.05
1014.29 1013.87 1013.64 1013.48 1013.40 1013.37 1013.26 1013.15 1012.93 1012.54 1012.26 1012.23 1012.40 1012.04 1011.79 1010.89 1008.46 1007.36 1007.75 1008.23 1008.56 1008.73 1008.96 1009.26 1009.55 1010.25 1010.85 1011.15 1011.00 1010.93 1010.67 1010.78 1010.61 1010.16 1010.19 1010.47 1011.66 1012.35 1013.27 1013.38 1013.45 1014.15 1014.81 1015.37 1015.91
1014.24 1013.86 1013.64 1013.46 1013.33 1013.24 1013.16 1013.02 1012.84 1012.48 1012.15 1012.14 1012.30 1011.93 1011.54 1009.71 1007.43 1007.66 1008.10 1008.59 1008.75 1008.84 1009.34 1009.57 1009.81 1010.02 1010.68 1011.09 1010.92 1010.84 1010.88 1010.93 1010.46 1010.39 1010.73 1011.36 1012.20 1012.49 1013.94 1013.97 1014.28 1014.77 1015.20 1015.69 1015.87
1014.24 1013.90 1013.64 1013.42 1013.33 1013.22 1013.13 1013.03 1012.85 1012.52 1012.14 1012.06 1012.22 1011.78 1010.87 1008.76 1007.77 1008.00 1008.52 1008.88 1008.86 1008.95 1009.57 1009.62 1009.73 1009.84 1010.43 1010.68 1010.73 1010.65 1010.80 1010.66 1010.59 1010.59 1011.09 1011.48 1012.39 1013.32 1013.97 1014.32 1014.59 1015.25 1015.44 1015.64 1015.50
1014.26 1013.87 1013.62 1013.40 1013.35 1013.21 1013.08 1013.01 1012.83 1012.56 1012.22 1012.05 1012.15 1011.66 1009.82 1008.17 1007.80 1008.54 1008.77 1009.24 1009.38 1009.19 1009.61 1010.12 1010.08 1010.50 1011.00 1010.92 1010.66 1010.62 1010.86 1011.13 1010.84 1010.85 1011.25 1011.58 1012.90 1013.60 1014.24 1014.47 1014.89 1015.45 1015.60 1015.46 1015.24
1014.20 1013.81 1013.53 1013.39 1013.31 1013.16 1012.99 1012.89 1012.76 1012.53 1012.30 1012.02 1011.97 1011.39 1009.55 1008.45 1008.68 1008.73 1008.77 1009.24 1009.60 1009.82 1010.01 1009.91 1010.13 1010.98 1011.14 1011.43 1011.45 1011.36 1011.27 1011.24 1010.99 1010.82 1011.15 1011.67 1012.86 1013.37 1014.20 1014.51 1015.13 1015.43 1015.57 1015.41 1015.15
1014.29 1013.82 1013.57 1013.35 1013.23 1012.97 1012.82 1012.81 1012.68 1012.67 1012.54 1012.18 1011.53 1011.12 1009.68 1008.22 1008.30 1008.62 1008.98 1009.16 1009.69 1009.99 1010.09 1010.35 1011.05 1011.39 1011.49 1011.62 1011.42 1010.86 1010.89 1010.56 1010.40 1010.84 1011.12 1011.82 1012.56 1013.14 1013.73 1014.12 1014.72 1015.14 1015.33 1015.25 1014.86
1014.21 1013.81 1013.51 1013.30 1013.08 1012.87 1012.68 1012.81 1013.03 1012.67 1012.09 1010.70 1010.11 1009.34 1008.36 1007.58 1007.77 1008.55 1008.89 1009.31 1009.79 1010.18 1010.59 1011.10 1011.50 1011.32 1010.82 1010.52 1010.37 1010.22 1010.56 1010.72 1011.11 1011.23 1011.33 1011.65 1012.15 1012.65 1013.27 1013.87 1014.28 1014.72 1014.71 1014.64 1014.36
1013.98 1013.72 1013.34 1013.08 1012.90 1012.81 1012.77 1012.15 1010.61 1010.20 1010.35 1009.46 1009.34 1008.80 1007.98 1007.58 1007.77 1008.49 1008.61 1009.28 1009.66 1010.18 1010.70 1011.25 1010.68 1009.69 1009.83 1010.05 1010.12 1010.14 1010.24 1010.73 1011.26 1011.34 1011.53 1011.84 1012.11 1012.35 1012.68 1012.61 1013.08 1013.55 1014.01 1013.69 1013.76
1013.75 1013.45 1013.18 1012.89 1012.63 1012.64 1012.13 1010.61 1009.68 1009.62 1010.00 1009.07 1008.80 1008.23 1007.53 1007.51 1007.51 1007.78 1008.13 1008.59 1009.08 1009.86 1010.22 1010.30 1009.30 1009.13 1009.30 1009.43 1009.74 1009.88 1010.18 1010.54 1011.09 1011.53 1011.88 1012.04 1012.44 1012.37 1012.36 1012.45 1012.66 1012.73 1012.89 1013.05 1012.84
1013.70 1013.23 1012.95 1012.70 1012.89 1012.07 1011.07 1009.49 1009.50 1009.59 1009.82 1008.82 1008.18 1006.85 1007.02 1006.99 1007.18 1006.52 1007.38 1008.01 1008.74 1009.01 1009.66 1009.54 1008.63 1008.63 1008.93 1008.87 1009.25 1009.78 1009.53 1010.38 1011.32 1011.89 1012.97 1013.04 1013.37 1012.32 1011.96 1011.91 1012.04 1011.76 1011.85 1011.91 1012.07
1013.36 1012.89 1012.54 1012.44 1011.95 1011.46 1009.70 1009.48 1009.46 1009.62 1009.25 1007.82 1007.17 1006.21 1006.61 1006.75 1006.58 1006.65 1006.48 1007.29 1008.06 1008.41 1009.04 1008.60 1008.28 1008.27 1008.56 1008.34 1008.63 1009.32 1009.37 1010.42 1011.58 1012.68 1013.51 1013.68 1014.02 1011.99 1011.77 1011.71 1010.99 1010.79 1010.69 1010.60 1010.55
1012.84 1012.29 1012.08 1012.20 1011.97 1009.70 1009.37 1009.35 1009.45 1009.32 1008.21 1006.98 1006.34 1006.36 1006.65 1006.32 1006.15 1006.38 1006.60 1006.81 1007.17 1008.33 1008.49 1008.37 1007.78 1007.74 1007.70 1008.08 1008.60 1009.46 1010.12 1011.17 1012.32 1013.25 1014.27 1013.72 1013.76 1012.00 1011.30 1009.95 1009.80 1009.80 1009.69 1009.67 1009.73
1012.17 1011.34 1011.42 1010.74 1010.33 1009.37 1009.34 1009.54 1009.65 1009.04 1007.73 1006.91 1006.33 1006.22 1006.35 1006.46 1006.25 1006.20 1006.73 1007.22 1007.79 1008.78 1009.03 1008.46 1007.80 1007.31 1007.36 1008.33 1009.01 1009.68 1010.64 1012.24 1013.40 1014.11 1014.41 1013.98 1013.75 1010.98 1009.24 1008.60 1008.53 1008.47 1008.61 1008.62 1008.79
1011.50 1011.08 1010.74 1010.22 1009.70 1009.49 1009.20 1009.52 1009.40 1008.50 1007.51 1006.55 1006.41 1006.59 1006.66 1006.65 1006.69 1006.83 1007.22 1007.77 1007.98 1008.57 1009.38 1009.25 1008.08 1007.13 1007.28 1007.58 1008.53 1009.82 1010.62 1011.74 1013.28 1014.42 1013.84 1013.35 1011.97 1009.04 1008.22 1008.01 1008.14 1007.82 1007.85 1008.13 1008.41
1010.92 1010.93 1010.75 1009.59 1009.51 1009.59 1009.68 1009.96 1009.17 1008.07 1007.13 1006.64 1006.63 1006.70 1006.87 1006.93 1007.14 1007.27 1007.51 1007.93 1007.88 1008.24 1008.94 1009.11 1008.14 1006.84 1006.81 1007.01 1007.66 1009.38 1010.53 1011.22 1012.56 1013.68 1013.75 1012.11 1010.60 1008.69 1007.72 1007.74 1007.66 1007.61 1007.80 1008.23 1008.40
1011.58 1010.99 1010.25 1009.40 1009.29 1009.56 1010.05 1009.97 1008.89 1007.72 1006.87 1006.54 1006.46 1006.53 1007.01 1007.10 1007.43 1007.56 1007.48 1006.75 1007.11 1007.16 1007.20 1008.55 1008.42 1007.17 1007.09 1007.06 1007.92 1008.41 1009.17 1010.99 1012.15 1012.90 1012.81 1011.54 1010.52 1009.10 1007.94 1007.57 1007.71 1007.95 1008.33 1008.57 1008.70
1011.45 1011.03 1010.27 1009.64 1009.70 1010.00 1010.58 1009.90 1008.59 1007.11 1006.73 1006.40 1006.24 1006.44 1006.71 1007.08 1007.44 1007.54 1007.13 1006.14 1005.90 1006.41 1006.91 1008.08 1008.65 1007.92 1007.36 1007.33 1007.77 1008.66 1009.20 1010.30 1011.34 1012.08 1012.26 1011.95 1009.96 1008.07 1007.55 1007.18 1007.61 1008.12 1008.62 1008.81 1009.00
1012.52 1011.93 1010.20 1009.98 1010.51 1011.14 1010.67 1009.52 1008.38 1007.17 1006.46 1006.17 1005.96 1006.07 1006.41 1006.85 1007.23 1007.33 1006.71 1005.83 1005.13 1005.85 1007.10 1007.33 1008.32 1008.64 1007.81 1007.20 1007.19 1007.35 1008.17 1009.19 1010.73 1011.73 1012.05 1011.71 1008.96 1007.90 1007.49 1007.19 1007.71 1008.25 1008.95 1009.10 1009.63
1014.10 1012.87 1010.31 1010.07 1011.24 1011.66 1010.50 1009.38 1008.34 1007.49 1006.79 1006.35 1006.11 1005.96 1006.21 1006.68 1007.12 1006.69 1006.20 1004.90 1004.97 1005.59 1005.66 1006.72 1007.96 1008.93 1008.29 1007.84 1007.32 1007.33 1007.65 1008.57 1009.80 1010.31 1011.14 1011.11 1008.59 1007.61 1007.60 1007.34 1007.81 1008.36 1009.00 1009.41 1010.12
1014.81 1014.04 1012.29 1011.59 1011.89 1011.74 1011.10 1009.72 1008.43 1007.29 1006.91 1006.63 1006.33 1006.44 1006.18 1006.74 1007.00 1006.58 1006.02 1005.34 1004.80 1005.00 1005.33 1005.72 1007.55 1007.84 1007.77 1007.06 1006.75 1007.04 1007.26 1008.11 1009.06 1010.08 1010.29 1009.39 1007.94 1007.67 1007.53 1007.34 1007.67 1008.40 1008.98 1009.49 1010.12
1015.77 1016.22 1015.63 1014.11 1013.41 1012.68 1011.54 1010.26 1009.13 1007.97 1007.26 1006.88 1006.85 1006.59 1006.06 1006.70 1006.89 1006.73 1006.05 1005.60 1005.19 1005.13 1005.66 1006.19 1007.16 1007.49 1007.04 1006.49 1006.36 1006.35 1006.59 1007.29 1008.16 1008.32 1008.77 1007.46 1007.47 1006.96 1007.05 1007.25 1007.67 1008.35 1009.18 1009.76 1010.18
1018.25 1018.42 1016.82 1015.45 1014.25 1013.26 1012.04 1010.46 1009.63 1008.80 1008.07 1007.03 1006.91 1006.80 1006.37 1006.15 1006.39 1006.60 1006.26 1006.02 1005.89 1005.80 1006.27 1006.76 1007.47 1007.54 1007.36 1006.79 1006.63 1006.42 1006.22 1006.82 1007.28 1007.60 1007.80 1007.59 1006.91 1006.16 1006.63 1007.08 1007.73 1008.50 1009.19 1009.61 1010.13
1019.79 1019.46 1018.82 1016.64 1015.27 1014.15 1012.70 1011.34 1010.34 1009.74 1007.91 1007.15 1007.15 1006.95 1005.97 1005.19 1005.12 1005.20 1005.42 1005.68 1005.93 1006.40 1006.79 1007.31 1007.64 1008.42 1008.21 1007.40 1006.89 1006.64 1006.01 1006.25 1006.32 1006.25 1006.51 1006.64 1005.61 1006.07 1006.86 1007.17 1007.74 1008.40 1008.93 1009.32 1010.07
Thickness
5796 5797 5798 5799 5799 5799 5798 5798 5799 5800 5802 5804 5803 5802 5802 5804 5808 5807 5806 5827 5828 5830 5830 5824 5821 5816 5807 5792 5792 5789 5757 5751 5758 5761 5768 5784 5774 5783 5781 5767 5769 5768 5758 5759 5757
5795 5797 5798 5798 5799 5799 5798 5798 5799 5800 5802 5804 5803 5803 5804 5805 5808 5808 5835 5836 5836 5834 5824 5815 5806 5807 5795 5787 5782 5772 5750 5761 5780 5782 5774 5778 5776 5770 5765 5761 5752 5751 5756 5754 5750
5793 5796 5797 5798 5798 5798 5798 5798 5799 5800 5802 5803 5802 5803 5804 5806 5807 5823 5842 5838 5835 5833 5829 5822 5812 5803 5788 5784 5776 5775 5760 5771 5782 5791 5794 5782 5774 5773 5759 5751 5751 5746 5745 5744 5739
5791 5794 5795 5796 5796 5797 5796 5797 5798 5800 5802 5802 5801 5802 5805 5805 5794 5835 5844 5838 5834 5830 5825 5815 5807 5789 5774 5768 5780 5770 5781 5779 5786 5795 5795 5780 5778 5761 5760 5757 5766 5756 5751 5743 5734
5787 5790 5792 5793 5793 5793 5794 5794 5796 5799 5801 5799 5799 5802 5806 5807 5815 5840 5837 5833 5829 5825 5814 5805 5795 5784 5769 5773 5778 5772 5778 5782 5785 5791 5786 5785 5764 5758 5751 5759 5760 5753 5748 5740 5735
5783 5786 5787 5789 5790 5790 5790 5791 5793 5796 5798 5796 5796 5800 5803 5799 5838 5837 5834 5830 5824 5819 5811 5806 5797 5796 5779 5772 5771 5777 5777 5777 5786 5783 5782 5769 5762 5762 5750 5756 5751 5748 5744 5740 5737
5778 5781 5782 5784 5784 5784 5785 5785 5786 5789 5794 5791 5792 5798 5801 5807 5834 5833 5830 5824 5824 5819 5805 5809 5806 5795 5787 5775 5785 5778 5767 5778 5780 5782 5773 5775 5754 5746 5752 5755 5751 5744 5744 5744 5746
5772 5775 5777 5778 5778 5778 5779 5779 5780 5783 5787 5786 5786 5793 5795 5825 5830 5825 5824 5817 5820 5821 5812 5809 5807 5790 5782 5785 5781 5769 5769 5750 5775 5779 5776 5771 5741 5752 5753 5753 5747 5743 5745 5748 5749
5767 5770 5771 5772 5772 5773 5774 5775 5775 5777 5781 5784 5784 5788 5793 5819 5809 5819 5822 5810 5812 5812 5810 5813 5803 5783 5783 5765 5752 5760 5746 5752 5766 5782 5776 5770 5747 5758 5756 5753 5745 5743 5744 5749 5751
5762 5764 5766 5768 5769 5771 5772 5772 5773 5773 5775 5779 5784 5781 5792 5796 5807 5811 5817 5816 5804 5803 5798 5793 5780 5769 5768 5757 5739 5752 5755 5767 5765 5774 5775 5762 5756 5760 5760 5758 5750 5745 5745 5749 5757
5760 5762 5764 5766 5768 5770 5772 5770 5767 5765 5769 5777 5783 5787 5797 5810 5814 5802 5810 5805 5801 5795 5774 5778 5764 5760 5771 5775 5782 5778 5771 5764 5765 5772 5770 5765 5764 5762 5764 5760 5753 5749 5748 5751 5761
5761 5762 5765 5767 5768 5768 5767 5771 5780 5782 5762 5781 5781 5784 5796 5805 5791 5794 5811 5791 5787 5773 5777 5768 5763 5790 5792 5786 5779 5779 5771 5765 5765 5771 5772 5767 5766 5770 5770 5772 5769 5764 5758 5764 5766
5764 5766 5767 5769 5770 5769 5772 5781 5790 5788 5757 5771 5775 5780 5790 5799 5789 5789 5805 5798 5787 5773 5773 5768 5787 5798 5792 5786 5778 5776 5769 5771 5765 5768 5771 5772 5757 5764 5776 5777 5775 5776 5775 5773 5775
5767 5769 5770 5771 5772 5775 5778 5793 5791 5788 5740 5762 5770 5786 5793 5797 5784 5812 5811 5801 5789 5777 5776 5777 5798 5795 5787 5785 5784 5760 5791 5787 5772 5759 5736 5762 5726 5758 5771 5773 5775 5781 5782 5784 5784
5771 5774 5775 5776 5781 5778 5795 5794 5793 5783 5715 5775 5777 5805 5795 5786 5794 5796 5817 5805 5780 5787 5785 5782 5793 5793 5782 5792 5796 5781 5798 5783 5772 5748 5745 5751 5733 5761 5768 5765 5778 5786 5791 5796 5801
5777 5781 5781 5779 5778 5796 5798 5798 5790 5748 5728 5768 5784 5777 5778 5790 5794 5798 5799 5813 5807 5783 5791 5788 5810 5808 5803 5803 5804 5798 5782 5772 5758 5749 5726 5748 5740 5759 5762 5785 5789 5795 5799 5804 5807
5784 5790 5788 5791 5797 5800 5800 5791 5746 5730 5776 5769 5770 5778 5776 5777 5787 5793 5783 5778 5766 5754 5759 5780 5792 5809 5813 5790 5799 5786 5764 5728 5731 5723 5723 5740 5733 5768 5802 5806 5806 5806 5807 5811 5814
5789 5792 5793 5795 5799 5800 5799 5769 5742 5763 5763 5784 5777 5772 5766 5774 5780 5780 5773 5764 5781 5772 5748 5745 5757 5798 5807 5802 5784 5778 5771 5744 5734 5720 5738 5748 5748 5792 5815 5820 5814 5816 5816 5817 5818
5793 5793 5792 5800 5799 5798 5781 5739 5751 5768 5782 5778 5775 5768 5765 5773 5776 5776 5770 5764 5776 5777 5756 5748 5764 5810 5814 5815 5808 5783 5764 5777 5740 5734 5736 5756 5776 5802 5818 5818 5818 5815 5815 5813 5815
5785 5791 5795 5800 5800 5791 5762 5748 5764 5782 5790 5787 5770 5776 5760 5769 5765 5765 5763 5789 5785 5792 5798 5778 5757 5800 5807 5814 5807 5798 5796 5761 5747 5748 5753 5756 5760 5773 5808 5820 5818 5815 5811 5810 5811
5786 5786 5792 5796 5794 5775 5749 5751 5773 5792 5793 5786 5781 5776 5771 5772 5767 5765 5775 5797 5804 5797 5799 5779 5770 5779 5800 5794 5782 5785 5778 5769 5766 5754 5746 5739 5764 5799 5811 5822 5820 5815 5812 5809 5807
5769 5765 5789 5790 5765 5744 5750 5761 5782 5788 5797 5793 5794 5789 5784 5780 5772 5767 5773 5793 5818 5804 5784 5790 5768 5754 5776 5803 5809 5805 5794 5783 5763 5761 5747 5745 5766 5810 5816 5824 5819 5815 5807 5808 5802
5751 5753 5785 5784 5745 5742 5756 5769 5779 5781 5786 5789 5787 5794 5792 5781 5773 5779 5787 5817 5819 5807 5797 5793 5763 5742 5759 5779 5796 5796 5797 5784 5772 5771 5750 5751 5776 5819 5818 5823 5819 5811 5806 5803 5799
5749 5747 5759 5762 5751 5752 5750 5759 5767 5788 5785 5788 5787 5786 5783 5775 5776 5781 5789 5806 5820 5815 5818 5807 5767 5768 5757 5774 5789 5790 5798 5787 5779 5759 5762 5768 5800 5814 5816 5820 5821 5812 5807 5802 5799
5736 5729 5729 5732 5740 5740 5747 5753 5759 5765 5782 5783 5778 5780 5781 5769 5770 5772 5788 5793 5811 5812 5808 5800 5779 5777 5786 5793 5795 5800 5802 5790 5781 5788 5786 5804 5798 5813 5816 5818 5818 5814 5805 5801 5798
5713 5704 5713 5721 5728 5736 5740 5755 5755 5760 5767 5776 5773 5773 5776 5771 5773 5768 5785 5785 5786 5803 5800 5791 5777 5786 5783 5790 5789 5788 5798 5797 5790 5796 5789 5795 5804 5827 5825 5823 5816 5811 5805 5802 5800
5687 5689 5696 5713 5719 5729 5731 5744 5751 5752 5771 5779 5772 5771 5776 5787 5792 5795 5795 5795 5794 5792 5786 5782 5771 5765 5760 5777 5780 5767 5786 5789 5795 5803 5805 5796 5825 5823 5818 5819 5813 5808 5806 5804 5800